Location: ??????????
(44.2167°N, 135.5333°E)
Time: 14:14:16
(UTC+00:00)

Cosmos 1703 Rocket - Pass Details

Date: 15 June 2025
Orbit: 600 x 626 km, 82.5° (Epoch: 15 July)

Event Time Altitude Azimuth Distance (km) Brightness Sun altitude
Exits shadow 15:09:34 40° 258° (WSW) 900 4.2 -22.4°
Maximum altitude 15:10:13 43° 283° (WNW) 856 4.3 -22.4°
Drops below altitude 10° 15:14:21 10° 355° (N) 1,954 7.2 -22.3°
Sets 15:16:39 0° 3° (N) 2,860 8.5 -22.3°
